QPF
0.08 0.13 0.15 0.11 0.05 0.04 0.03 0.04 0.03 0.03 0.01 0.01 0.01 0.01 0.01 0.02 0.05 0.06 0.05 0.03 0.01 0.02 0.03 0.05 0.06 0.08 0.09 0.09 0.08 0.08 0.07 0.07 0.07 0.07 0.06 0.05 0.04 0.04 0.04 0.04 0.04 0.04 0.04
0.12 0.15 0.17 0.14 0.07 0.08 0.07 0.05 0.04 0.03 0.04 0.05 0.03 0.02 0.03 0.04 0.06 0.06 0.09 0.09 0.05 0.04 0.04 0.04 0.05 0.07 0.09 0.11 0.12 0.12 0.11 0.12 0.12 0.10 0.09 0.07 0.06 0.06 0.05 0.04 0.04 0.04 0.04
0.25 0.22 0.26 0.19 0.10 0.08 0.10 0.07 0.07 0.07 0.08 0.07 0.07 0.06 0.07 0.08 0.08 0.08 0.11 0.17 0.12 0.10 0.07 0.07 0.06 0.06 0.08 0.10 0.12 0.13 0.14 0.14 0.14 0.11 0.10 0.10 0.10 0.10 0.08 0.06 0.05 0.05 0.04
0.34 0.30 0.26 0.22 0.15 0.13 0.15 0.14 0.13 0.14 0.14 0.12 0.11 0.10 0.10 0.11 0.07 0.09 0.10 0.11 0.12 0.10 0.06 0.04 0.03 0.03 0.05 0.07 0.11 0.13 0.15 0.15 0.15 0.13 0.13 0.13 0.14 0.13 0.11 0.10 0.08 0.06 0.06
0.42 0.38 0.38 0.36 0.26 0.24 0.19 0.13 0.19 0.19 0.18 0.17 0.14 0.13 0.10 0.10 0.08 0.07 0.05 0.06 0.07 0.07 0.07 0.05 0.03 0.02 0.04 0.04 0.06 0.09 0.11 0.11 0.12 0.14 0.17 0.18 0.16 0.13 0.12 0.11 0.10 0.10 0.10
0.48 0.43 0.40 0.38 0.32 0.28 0.26 0.22 0.22 0.20 0.18 0.16 0.13 0.11 0.09 0.08 0.08 0.09 0.06 0.06 0.07 0.06 0.05 0.04 0.03 0.03 0.03 0.03 0.04 0.05 0.06 0.07 0.09 0.11 0.12 0.12 0.11 0.10 0.12 0.13 0.13 0.13 0.13
0.34 0.29 0.29 0.31 0.28 0.24 0.21 0.21 0.20 0.20 0.18 0.16 0.17 0.14 0.10 0.09 0.09 0.07 0.06 0.05 0.04 0.03 0.02 0.03 0.03 0.03 0.03 0.02 0.02 0.03 0.04 0.04 0.05 0.06 0.08 0.10 0.10 0.10 0.11 0.12 0.15 0.16 0.16
0.32 0.27 0.28 0.24 0.21 0.20 0.19 0.18 0.20 0.21 0.18 0.17 0.21 0.21 0.15 0.11 0.07 0.04 0.04 0.03 0.02 0.02 0.02 0.02 0.02 0.02 0.03 0.03 0.02 0.02 0.01 0.01 0.02 0.04 0.06 0.06 0.07 0.08 0.09 0.11 0.14 0.16 0.16
0.37 0.32 0.32 0.27 0.21 0.19 0.17 0.17 0.17 0.18 0.21 0.19 0.17 0.21 0.21 0.19 0.10 0.06 0.03 0.02 0.02 0.02 0.02 0.02 0.02 0.01 0.01 0.02 0.02 0.02 0.02 0.02 0.02 0.03 0.04 0.04 0.05 0.06 0.07 0.09 0.11 0.13 0.16
0.19 0.20 0.20 0.22 0.22 0.19 0.18 0.17 0.14 0.16 0.21 0.20 0.16 0.14 0.15 0.17 0.12 0.07 0.04 0.02 0.02 0.02 0.01 0.01 0.01 0.01 0.02 0.02 0.01 0.02 0.02 0.02 0.02 0.02 0.02 0.03 0.03 0.04 0.05 0.06 0.08 0.09 0.13
0.14 0.14 0.15 0.16 0.17 0.18 0.17 0.16 0.14 0.13 0.15 0.15 0.13 0.11 0.10 0.10 0.09 0.07 0.05 0.03 0.02 0.01 0.01 0.01 0.01 0.01 0.01 0.01 0.01 0.01 0.01 0.01 0.01 0.01 0.02 0.02 0.03 0.03 0.04 0.05 0.06 0.07 0.08
0.12 0.12 0.13 0.15 0.15 0.15 0.13 0.12 0.11 0.10 0.10 0.10 0.10 0.09 0.07 0.07 0.07 0.07 0.05 0.03 0.02 0.01 0.01 0.01 0.01 0.01 0.00 0.00 0.01 0.01 0.01 0.01 0.01 0.01 0.01 0.02 0.02 0.03 0.03 0.04 0.05 0.06 0.07
0.15 0.15 0.13 0.11 0.12 0.10 0.09 0.09 0.09 0.09 0.08 0.07 0.07 0.06 0.04 0.04 0.03 0.03 0.03 0.02 0.01 0.01 0.01 0.01 0.00 0.00 0.00 0.00 0.01 0.01 0.00 0.00 0.01 0.01 0.01 0.01 0.01 0.02 0.02 0.03 0.03 0.04 0.05
0.11 0.10 0.10 0.09 0.08 0.07 0.06 0.05 0.05 0.05 0.04 0.03 0.03 0.03 0.02 0.02 0.03 0.03 0.03 0.03 0.02 0.02 0.01 0.01 0.01 0.01 0.00 0.00 0.01 0.01 0.00 0.00 0.00 0.00 0.00 0.01 0.01 0.01 0.01 0.02 0.02 0.02 0.03
0.07 0.07 0.08 0.08 0.07 0.05 0.05 0.04 0.03 0.03 0.02 0.02 0.02 0.02 0.02 0.02 0.02 0.02 0.02 0.02 0.02 0.02 0.01 0.01 0.01 0.00 0.00 0.00 0.00 0.00 0.00 0.00 0.00 0.00 0.00 0.00 0.00 0.00 0.01 0.01 0.01 0.01 0.01
0.06 0.06 0.05 0.05 0.04 0.04 0.03 0.02 0.02 0.02 0.02 0.02 0.02 0.02 0.02 0.02 0.02 0.02 0.01 0.01 0.01 0.01 0.01 0.01 0.00 0.00 0.00 0.00 0.00 0.00 0.00 0.00 0.00 0.00 0.00 0.00 0.00 0.00 0.00 0.00 0.00 0.00 0.00
0.08 0.06 0.03 0.02 0.02 0.02 0.02 0.02 0.02 0.02 0.01 0.01 0.01 0.01 0.01 0.01 0.01 0.01 0.01 0.01 0.01 0.00 0.00 0.00 0.00 0.00 0.00 0.00 0.00 0.00 0.00 0.00 0.00 0.00 0.00 0.00 0.00 0.00 0.00 0.00 0.00 0.00 0.00
0.07 0.05 0.03 0.03 0.02 0.02 0.02 0.02 0.01 0.01 0.01 0.00 0.00 0.00 0.00 0.00 0.00 0.00 0.00 0.00 0.00 0.00 0.00 0.00 0.00 0.00 0.00 0.00 0.00 0.00 0.00 0.00 0.00 0.00 0.00 0.00 0.00 0.00 0.00 0.00 0.00 0.00 0.00
0.07 0.05 0.04 0.04 0.04 0.03 0.02 0.02 0.02 0.01 0.01 0.00 0.00 0.00 0.00 0.00 0.00 0.00 0.00 0.00 0.00 0.00 0.00 0.00 0.00 0.00 0.00 0.00 0.00 0.00 0.00 0.00 0.00 0.00 0.00 0.00 0.00 0.00 0.00 0.00 0.00 0.00 0.00
0.05 0.04 0.04 0.04 0.03 0.03 0.02 0.02 0.01 0.01 0.00 0.00 0.00 0.00 0.00 0.00 0.00 0.00 0.00 0.00 0.00 0.01 0.01 0.00 0.00 0.01 0.01 0.01 0.01 0.01 0.01 0.01 0.01 0.00 0.00 0.00 0.00 0.00 0.00 0.00 0.00 0.00 0.00
0.02 0.03 0.02 0.02 0.02 0.02 0.02 0.01 0.01 0.00 0.00 0.00 0.00 0.00 0.00 0.00 0.00 0.00 0.00 0.00 0.00 0.01 0.01 0.01 0.02 0.02 0.03 0.03 0.02 0.01 0.01 0.02 0.02 0.01 0.01 0.02 0.02 0.03 0.04 0.02 0.00 0.00 0.00
0.03 0.03 0.02 0.01 0.01 0.00 0.00 0.00 0.00 0.00 0.00 0.00 0.00 0.00 0.00 0.00 0.00 0.00 0.00 0.00 0.00 0.00 0.00 0.01 0.03 0.04 0.04 0.03 0.02 0.01 0.02 0.03 0.04 0.02 0.02 0.03 0.03 0.05 0.06 0.03 0.01 0.00 0.00
0.02 0.01 0.01 0.01 0.00 0.00 0.00 0.00 0.00 0.01 0.01 0.01 0.01 0.01 0.00 0.00 0.00 0.00 0.00 0.00 0.00 0.00 0.00 0.00 0.02 0.02 0.02 0.02 0.01 0.02 0.03 0.03 0.05 0.03 0.03 0.06 0.05 0.06 0.03 0.01 0.00 0.00 0.00
0.03 0.02 0.01 0.01 0.00 0.00 0.00 0.00 0.00 0.01 0.01 0.01 0.01 0.01 0.02 0.01 0.00 0.00 0.00 0.01 0.02 0.02 0.00 0.00 0.01 0.01 0.00 0.00 0.00 0.01 0.02 0.04 0.08 0.07 0.04 0.07 0.08 0.07 0.05 0.03 0.00 0.00 0.00
0.03 0.02 0.01 0.01 0.00 0.00 0.00 0.00 0.00 0.02 0.02 0.01 0.00 0.00 0.01 0.01 0.00 0.00 0.01 0.03 0.03 0.03 0.00 0.00 0.00 0.00 0.00 0.00 0.00 0.00 0.03 0.05 0.08 0.09 0.05 0.05 0.06 0.07 0.08 0.05 0.02 0.00 0.00
0.02 0.02 0.02 0.02 0.01 0.00 0.00 0.00 0.00 0.01 0.03 0.02 0.02 0.01 0.00 0.00 0.00 0.00 0.01 0.02 0.02 0.02 0.01 0.02 0.02 0.02 0.02 0.02 0.00 0.02 0.06 0.06 0.06 0.07 0.05 0.04 0.05 0.05 0.06 0.05 0.03 0.02 0.02
MSLP
1013.32 1013.57 1013.78 1014.00 1014.24 1014.53 1014.84 1015.17 1015.46 1015.71 1015.89 1016.01 1016.12 1016.24 1016.43 1016.71 1017.08 1017.53 1018.00 1018.43 1018.77 1018.99 1019.05 1018.98 1018.81 1018.60 1018.38 1018.20 1018.08 1018.03 1018.04 1018.08 1018.15 1018.23 1018.31 1018.41 1018.51 1018.63 1018.76 1018.90 1019.02 1019.13 1019.20
1012.78 1013.04 1013.29 1013.55 1013.85 1014.19 1014.57 1014.97 1015.34 1015.68 1015.97 1016.21 1016.43 1016.66 1016.94 1017.28 1017.67 1018.11 1018.55 1018.93 1019.23 1019.41 1019.47 1019.41 1019.27 1019.10 1018.92 1018.78 1018.69 1018.64 1018.63 1018.64 1018.66 1018.68 1018.70 1018.73 1018.77 1018.84 1018.93 1019.03 1019.13 1019.21 1019.28
1012.41 1012.69 1012.97 1013.28 1013.63 1014.04 1014.48 1014.95 1015.41 1015.84 1016.23 1016.58 1016.91 1017.24 1017.60 1017.98 1018.38 1018.80 1019.19 1019.53 1019.78 1019.93 1019.97 1019.94 1019.85 1019.74 1019.63 1019.55 1019.51 1019.49 1019.48 1019.47 1019.44 1019.40 1019.35 1019.31 1019.29 1019.29 1019.33 1019.39 1019.46 1019.53 1019.57
1012.28 1012.56 1012.86 1013.21 1013.61 1014.07 1014.56 1015.08 1015.60 1016.10 1016.58 1017.02 1017.45 1017.87 1018.28 1018.70 1019.12 1019.52 1019.87 1020.16 1020.36 1020.49 1020.54 1020.53 1020.50 1020.46 1020.43 1020.43 1020.45 1020.46 1020.47 1020.44 1020.38 1020.28 1020.17 1020.06 1019.97 1019.92 1019.90 1019.92 1019.96 1020.00 1020.03
1012.41 1012.67 1012.98 1013.35 1013.77 1014.24 1014.76 1015.30 1015.85 1016.39 1016.92 1017.43 1017.93 1018.41 1018.89 1019.34 1019.77 1020.16 1020.49 1020.75 1020.93 1021.05 1021.11 1021.14 1021.16 1021.20 1021.25 1021.32 1021.39 1021.44 1021.46 1021.43 1021.34 1021.20 1021.03 1020.86 1020.71 1020.60 1020.53 1020.51 1020.52 1020.54 1020.56
1012.77 1013.00 1013.30 1013.65 1014.07 1014.53 1015.03 1015.55 1016.09 1016.63 1017.17 1017.72 1018.26 1018.79 1019.31 1019.81 1020.27 1020.67 1021.00 1021.25 1021.44 1021.56 1021.65 1021.72 1021.79 1021.89 1022.00 1022.12 1022.24 1022.32 1022.35 1022.31 1022.20 1022.02 1021.81 1021.60 1021.40 1021.24 1021.13 1021.07 1021.05 1021.05 1021.05
1013.31 1013.50 1013.77 1014.09 1014.46 1014.88 1015.33 1015.80 1016.28 1016.79 1017.31 1017.85 1018.41 1018.98 1019.54 1020.08 1020.57 1021.00 1021.36 1021.63 1021.84 1021.99 1022.11 1022.22 1022.34 1022.48 1022.63 1022.79 1022.93 1023.02 1023.06 1023.01 1022.88 1022.69 1022.45 1022.20 1021.97 1021.77 1021.62 1021.53 1021.47 1021.44 1021.41
1013.96 1014.13 1014.35 1014.62 1014.94 1015.28 1015.65 1016.04 1016.45 1016.89 1017.37 1017.88 1018.43 1019.01 1019.59 1020.16 1020.69 1021.17 1021.56 1021.88 1022.13 1022.32 1022.48 1022.63 1022.78 1022.95 1023.12 1023.29 1023.44 1023.53 1023.56 1023.50 1023.37 1023.17 1022.92 1022.65 1022.39 1022.17 1021.99 1021.86 1021.76 1021.69 1021.63
1014.69 1014.82 1015.01 1015.23 1015.47 1015.74 1016.02 1016.32 1016.64 1017.00 1017.42 1017.89 1018.41 1018.97 1019.56 1020.15 1020.71 1021.21 1021.65 1022.02 1022.31 1022.55 1022.75 1022.93 1023.11 1023.29 1023.47 1023.63 1023.77 1023.85 1023.87 1023.82 1023.68 1023.49 1023.24 1022.98 1022.71 1022.47 1022.26 1022.09 1021.95 1021.83 1021.72
1015.43 1015.56 1015.72 1015.89 1016.07 1016.26 1016.46 1016.68 1016.92 1017.21 1017.56 1017.97 1018.45 1018.99 1019.56 1020.14 1020.70 1021.22 1021.68 1022.08 1022.41 1022.68 1022.92 1023.13 1023.32 1023.50 1023.68 1023.84 1023.96 1024.03 1024.05 1024.00 1023.88 1023.70 1023.48 1023.23 1022.97 1022.72 1022.49 1022.28 1022.09 1021.92 1021.75
1016.17 1016.31 1016.45 1016.59 1016.73 1016.86 1017.00 1017.15 1017.34 1017.57 1017.86 1018.23 1018.65 1019.14 1019.66 1020.21 1020.74 1021.24 1021.70 1022.10 1022.45 1022.75 1023.01 1023.23 1023.44 1023.62 1023.79 1023.93 1024.04 1024.11 1024.13 1024.09 1024.00 1023.86 1023.67 1023.46 1023.22 1022.98 1022.73 1022.49 1022.26 1022.03 1021.80
1016.89 1017.04 1017.18 1017.30 1017.41 1017.51 1017.62 1017.74 1017.90 1018.10 1018.36 1018.68 1019.05 1019.48 1019.94 1020.41 1020.89 1021.34 1021.76 1022.14 1022.47 1022.77 1023.03 1023.26 1023.47 1023.65 1023.81 1023.94 1024.05 1024.12 1024.15 1024.13 1024.08 1023.99 1023.85 1023.68 1023.49 1023.26 1023.02 1022.76 1022.49 1022.21 1021.93
1017.55 1017.73 1017.87 1017.98 1018.08 1018.18 1018.29 1018.41 1018.57 1018.77 1019.01 1019.30 1019.63 1019.99 1020.37 1020.76 1021.15 1021.52 1021.87 1022.19 1022.49 1022.77 1023.02 1023.25 1023.44 1023.62 1023.77 1023.89 1023.99 1024.06 1024.11 1024.13 1024.12 1024.07 1024.00 1023.89 1023.74 1023.55 1023.33 1023.07 1022.79 1022.48 1022.17
1018.16 1018.35 1018.49 1018.60 1018.70 1018.81 1018.94 1019.10 1019.29 1019.51 1019.76 1020.04 1020.33 1020.63 1020.93 1021.22 1021.50 1021.78 1022.04 1022.29 1022.54 1022.77 1023.00 1023.20 1023.39 1023.55 1023.68 1023.79 1023.88 1023.95 1024.01 1024.05 1024.09 1024.10 1024.08 1024.03 1023.95 1023.81 1023.63 1023.39 1023.12 1022.82 1022.50
1018.70 1018.89 1019.02 1019.14 1019.25 1019.39 1019.55 1019.75 1019.98 1020.24 1020.52 1020.79 1021.06 1021.31 1021.54 1021.74 1021.93 1022.10 1022.27 1022.45 1022.63 1022.81 1022.99 1023.17 1023.33 1023.46 1023.57 1023.66 1023.74 1023.80 1023.86 1023.91 1023.97 1024.03 1024.06 1024.08 1024.05 1023.97 1023.85 1023.66 1023.43 1023.16 1022.86
1019.18 1019.35 1019.48 1019.60 1019.73 1019.89 1020.08 1020.33 1020.60 1020.91 1021.21 1021.50 1021.76 1021.98 1022.15 1022.28 1022.38 1022.47 1022.56 1022.66 1022.77 1022.90 1023.04 1023.18 1023.30 1023.41 1023.49 1023.54 1023.58 1023.62 1023.66 1023.71 1023.77 1023.85 1023.92 1023.98 1024.01 1024.00 1023.94 1023.82 1023.65 1023.44 1023.19
1019.62 1019.77 1019.90 1020.01 1020.15 1020.32 1020.55 1020.82 1021.14 1021.48 1021.81 1022.12 1022.37 1022.57 1022.71 1022.79 1022.84 1022.87 1022.89 1022.93 1022.99 1023.08 1023.17 1023.27 1023.35 1023.41 1023.45 1023.46 1023.45 1023.44 1023.45 1023.47 1023.52 1023.59 1023.68 1023.76 1023.84 1023.88 1023.88 1023.83 1023.74 1023.60 1023.42
1020.05 1020.19 1020.31 1020.42 1020.56 1020.75 1020.99 1021.28 1021.61 1021.97 1022.31 1022.63 1022.89 1023.08 1023.20 1023.27 1023.28 1023.27 1023.27 1023.27 1023.29 1023.34 1023.40 1023.46 1023.50 1023.51 1023.49 1023.45 1023.39 1023.32 1023.27 1023.24 1023.25 1023.30 1023.37 1023.47 1023.56 1023.64 1023.69 1023.71 1023.68 1023.62 1023.52
1020.50 1020.64 1020.76 1020.88 1021.02 1021.21 1021.44 1021.73 1022.06 1022.41 1022.75 1023.06 1023.32 1023.51 1023.64 1023.69 1023.71 1023.69 1023.67 1023.66 1023.66 1023.68 1023.71 1023.73 1023.73 1023.70 1023.63 1023.53 1023.41 1023.29 1023.17 1023.09 1023.04 1023.05 1023.09 1023.16 1023.25 1023.34 1023.43 1023.48 1023.51 1023.51 1023.47
1020.97 1021.13 1021.27 1021.40 1021.55 1021.73 1021.94 1022.21 1022.51 1022.83 1023.15 1023.45 1023.70 1023.89 1024.02 1024.09 1024.11 1024.10 1024.08 1024.07 1024.06 1024.07 1024.07 1024.07 1024.03 1023.96 1023.85 1023.70 1023.53 1023.35 1023.18 1023.03 1022.93 1022.88 1022.88 1022.91 1022.98 1023.06 1023.14 1023.21 1023.27 1023.30 1023.30
1021.47 1021.67 1021.83 1021.98 1022.13 1022.30 1022.49 1022.72 1022.98 1023.26 1023.54 1023.81 1024.04 1024.23 1024.36 1024.44 1024.48 1024.49 1024.48 1024.47 1024.46 1024.45 1024.44 1024.41 1024.35 1024.25 1024.10 1023.92 1023.72 1023.49 1023.28 1023.09 1022.94 1022.83 1022.78 1022.77 1022.79 1022.83 1022.89 1022.95 1023.00 1023.04 1023.05
1021.96 1022.20 1022.41 1022.58 1022.74 1022.89 1023.06 1023.24 1023.45 1023.68 1023.92 1024.15 1024.36 1024.54 1024.67 1024.76 1024.81 1024.83 1024.83 1024.82 1024.81 1024.78 1024.75 1024.70 1024.62 1024.50 1024.34 1024.14 1023.92 1023.68 1023.45 1023.23 1023.04 1022.89 1022.79 1022.72 1022.69 1022.69 1022.70 1022.73 1022.74 1022.75 1022.75
1022.41 1022.70 1022.94 1023.14 1023.31 1023.45 1023.60 1023.74 1023.90 1024.08 1024.27 1024.47 1024.65 1024.81 1024.94 1025.04 1025.09 1025.11 1025.11 1025.09 1025.06 1025.02 1024.96 1024.89 1024.79 1024.66 1024.50 1024.31 1024.09 1023.85 1023.62 1023.39 1023.18 1023.01 1022.87 1022.75 1022.67 1022.61 1022.57 1022.54 1022.50 1022.47 1022.41
1022.79 1023.11 1023.38 1023.61 1023.79 1023.93 1024.05 1024.17 1024.30 1024.44 1024.59 1024.75 1024.91 1025.06 1025.17 1025.26 1025.31 1025.33 1025.31 1025.27 1025.21 1025.13 1025.05 1024.95 1024.83 1024.70 1024.54 1024.36 1024.16 1023.95 1023.73 1023.51 1023.31 1023.12 1022.95 1022.80 1022.68 1022.56 1022.46 1022.37 1022.28 1022.18 1022.07
1023.08 1023.42 1023.72 1023.96 1024.15 1024.30 1024.42 1024.52 1024.62 1024.73 1024.86 1025.00 1025.14 1025.26 1025.37 1025.44 1025.48 1025.47 1025.42 1025.35 1025.25 1025.14 1025.02 1024.89 1024.75 1024.61 1024.45 1024.29 1024.12 1023.93 1023.74 1023.54 1023.35 1023.16 1022.98 1022.81 1022.65 1022.49 1022.34 1022.19 1022.04 1021.88 1021.71
1023.30 1023.65 1023.96 1024.22 1024.42 1024.58 1024.69 1024.79 1024.88 1024.98 1025.09 1025.21 1025.33 1025.44 1025.53 1025.58 1025.60 1025.56 1025.48 1025.37 1025.22 1025.07 1024.90 1024.74 1024.58 1024.42 1024.27 1024.11 1023.96 1023.80 1023.63 1023.46 1023.28 1023.10 1022.92 1022.73 1022.54 1022.35 1022.16 1021.97 1021.77 1021.56 1021.34
Thickness
5748 5748 5743 5740 5741 5741 5739 5740 5740 5740 5740 5740 5740 5740 5739 5737 5736 5733 5729 5726 5725 5723 5721 5720 5717 5715 5714 5712 5711 5709 5706 5705 5703 5701 5699 5698 5696 5695 5693 5692 5690 5689 5687
5746 5745 5742 5741 5742 5741 5740 5740 5739 5738 5737 5736 5735 5734 5734 5732 5730 5728 5724 5721 5719 5717 5716 5714 5713 5711 5710 5708 5707 5705 5703 5701 5699 5697 5695 5694 5692 5691 5689 5687 5685 5684 5683
5740 5739 5739 5736 5737 5738 5738 5737 5736 5735 5733 5731 5729 5728 5727 5725 5723 5721 5718 5715 5713 5710 5709 5707 5706 5705 5704 5703 5702 5700 5698 5696 5694 5693 5691 5689 5687 5686 5684 5681 5679 5678 5677
5735 5734 5734 5732 5732 5733 5733 5731 5730 5728 5726 5724 5722 5721 5720 5718 5716 5714 5711 5708 5706 5704 5701 5699 5698 5697 5696 5695 5694 5692 5690 5689 5687 5685 5684 5682 5680 5679 5676 5674 5672 5670 5669
5731 5728 5729 5728 5727 5726 5726 5725 5724 5722 5718 5716 5714 5712 5711 5709 5708 5706 5703 5700 5698 5695 5693 5690 5689 5687 5686 5685 5684 5682 5681 5679 5678 5676 5674 5673 5671 5670 5668 5666 5664 5662 5661
5726 5725 5723 5723 5722 5721 5720 5719 5717 5716 5713 5711 5708 5704 5702 5701 5699 5697 5695 5692 5689 5687 5684 5682 5679 5677 5675 5674 5673 5672 5670 5669 5667 5665 5664 5662 5660 5659 5658 5656 5655 5653 5651
5719 5719 5718 5718 5718 5715 5714 5713 5711 5709 5705 5704 5699 5693 5691 5691 5689 5687 5685 5683 5680 5678 5675 5672 5670 5667 5664 5662 5661 5660 5658 5657 5656 5654 5653 5651 5649 5648 5646 5644 5643 5641 5640
5713 5713 5712 5711 5711 5710 5707 5707 5706 5702 5700 5699 5694 5687 5680 5677 5677 5677 5675 5673 5670 5668 5665 5662 5660 5657 5654 5652 5650 5648 5646 5645 5644 5643 5641 5639 5638 5636 5634 5632 5631 5629 5628
5706 5706 5706 5704 5704 5704 5701 5700 5700 5697 5692 5691 5691 5686 5678 5672 5666 5664 5663 5661 5659 5657 5655 5652 5650 5647 5644 5642 5639 5637 5634 5633 5632 5630 5628 5626 5625 5623 5621 5620 5618 5616 5615
5696 5696 5696 5695 5695 5695 5693 5693 5693 5691 5688 5684 5682 5682 5679 5675 5665 5655 5652 5651 5650 5647 5644 5643 5640 5637 5634 5631 5628 5625 5623 5621 5619 5617 5615 5613 5611 5609 5607 5605 5604 5602 5601
5685 5685 5686 5686 5685 5684 5683 5682 5682 5681 5680 5677 5675 5673 5671 5668 5665 5655 5645 5642 5640 5637 5635 5633 5631 5628 5625 5622 5618 5614 5612 5609 5607 5604 5602 5600 5597 5595 5593 5591 5589 5587 5585
5675 5674 5674 5674 5674 5673 5671 5670 5670 5670 5668 5666 5665 5664 5661 5658 5654 5650 5643 5636 5632 5628 5627 5624 5622 5619 5616 5613 5608 5604 5601 5598 5594 5591 5589 5586 5584 5581 5578 5576 5573 5571 5568
5664 5662 5662 5662 5661 5661 5659 5659 5658 5657 5656 5655 5654 5653 5652 5649 5648 5644 5638 5631 5626 5621 5618 5616 5613 5610 5606 5603 5598 5595 5590 5587 5583 5580 5577 5573 5570 5567 5563 5561 5558 5555 5552
5653 5652 5652 5651 5650 5648 5648 5648 5646 5645 5644 5644 5643 5642 5640 5639 5638 5636 5630 5625 5619 5613 5610 5607 5604 5600 5596 5593 5589 5585 5581 5577 5573 5569 5565 5561 5557 5553 5550 5546 5543 5540 5537
5642 5642 5641 5640 5639 5638 5637 5637 5635 5634 5634 5633 5631 5630 5629 5628 5628 5626 5623 5619 5613 5607 5600 5598 5594 5590 5587 5583 5579 5575 5572 5568 5563 5559 5554 5550 5545 5541 5537 5534 5530 5527 5524
5632 5631 5631 5629 5628 5627 5627 5626 5625 5624 5622 5621 5620 5619 5618 5617 5616 5615 5612 5610 5607 5601 5593 5589 5585 5580 5576 5573 5569 5566 5563 5560 5554 5549 5544 5539 5535 5530 5526 5522 5519 5515 5512
5621 5620 5620 5619 5618 5617 5617 5617 5615 5614 5612 5611 5609 5607 5605 5605 5604 5603 5601 5598 5595 5591 5584 5579 5576 5571 5567 5563 5559 5557 5555 5552 5546 5541 5535 5530 5526 5521 5516 5512 5508 5505 5501
5609 5609 5610 5610 5609 5608 5608 5607 5606 5604 5602 5600 5599 5597 5596 5594 5592 5590 5588 5586 5582 5579 5574 5569 5566 5563 5559 5555 5552 5549 5546 5543 5539 5534 5528 5523 5518 5513 5508 5503 5499 5495 5492
5599 5599 5599 5599 5598 5597 5597 5596 5595 5593 5592 5591 5589 5586 5584 5582 5579 5577 5576 5573 5571 5569 5565 5560 5556 5554 5550 5547 5543 5541 5538 5534 5532 5528 5522 5517 5512 5507 5501 5496 5492 5488 5484
5588 5588 5588 5588 5588 5587 5586 5585 5584 5582 5582 5580 5578 5574 5571 5569 5566 5565 5564 5561 5559 5556 5554 5551 5547 5544 5540 5537 5533 5530 5527 5526 5524 5521 5517 5513 5508 5502 5496 5491 5487 5482 5479
5578 5578 5578 5577 5577 5574 5572 5572 5573 5573 5571 5569 5567 5564 5560 5558 5555 5553 5551 5548 5546 5544 5542 5538 5535 5531 5528 5525 5522 5520 5518 5517 5517 5514 5511 5508 5504 5499 5493 5488 5483 5479 5475
5567 5567 5566 5565 5564 5561 5559 5560 5562 5562 5561 5559 5557 5555 5551 5549 5546 5543 5541 5538 5535 5532 5529 5526 5524 5520 5517 5515 5514 5513 5511 5509 5507 5507 5504 5502 5501 5496 5492 5486 5481 5477 5473
5556 5555 5554 5552 5550 5549 5549 5550 5550 5552 5551 5550 5548 5546 5546 5540 5536 5534 5532 5530 5526 5523 5519 5517 5515 5512 5510 5508 5507 5505 5504 5502 5501 5502 5500 5497 5496 5493 5490 5485 5480 5476 5471
5546 5546 5544 5542 5541 5539 5539 5540 5540 5543 5543 5541 5539 5537 5533 5528 5524 5523 5523 5523 5521 5517 5514 5511 5509 5507 5506 5503 5501 5499 5499 5499 5499 5499 5497 5493 5492 5490 5488 5483 5479 5475 5471
5538 5537 5536 5534 5532 5530 5529 5530 5531 5534 5534 5532 5529 5525 5523 5518 5515 5514 5515 5514 5513 5510 5508 5506 5504 5502 5501 5500 5497 5494 5495 5494 5493 5494 5493 5490 5489 5487 5486 5483 5479 5475 5471
5532 5531 5529 5527 5525 5523 5521 5522 5523 5526 5525 5523 5519 5515 5511 5509 5507 5506 5505 5505 5503 5501 5500 5500 5500 5500 5499 5497 5495 5492 5491 5489 5489 5489 5489 5487 5486 5484 5482 5481 5480 5476 5472